Hourly Weather Dzhuryns'ka Slobidka

Today, 9 May, Sunday

Time Temperature Precipitation Wind Pressure Humidity
00:00 +3°C° 0 mm 2 mps 735 mmHg 88%
01:00 +3°C° 0 mm 2 mps 735 mmHg 88%
02:00 +2°C° 0 mm 2 mps 736 mmHg 89%
03:00 +2°C° 0 mm 2 mps 736 mmHg 88%
04:00 +2°C° 0 mm 2 mps 736 mmHg 87%
05:00 +2°C° 0 mm 2 mps 736 mmHg 85%
06:00 +4°C° 0 mm 2 mps 737 mmHg 78%
07:00 +6°C° 0 mm 2 mps 737 mmHg 70%
08:00 +8°C° 0 mm 2 mps 738 mmHg 63%
09:00 +10°C° 0 mm 2 mps 738 mmHg 58%
10:00 +12°C° 0 mm 1 mps 737 mmHg 53%
11:00 +13°C° 0 mm 1 mps 737 mmHg 48%
12:00 +14°C° 0 mm 1 mps 737 mmHg 46%
13:00 +15°C° 0 mm 1 mps 737 mmHg 44%
14:00 +16°C° 0 mm 1 mps 737 mmHg 42%
15:00 +16°C° 0 mm 1 mps 737 mmHg 44%
16:00 +16°C° 0 mm 1 mps 737 mmHg 45%
17:00 +16°C° 0 mm 1 mps 737 mmHg 46%
18:00 +14°C° 0 mm 2 mps 737 mmHg 53%
19:00 +11°C° 0 mm 3 mps 737 mmHg 60%
20:00 +10°C° 0 mm 3 mps 737 mmHg 67%
21:00 +9°C° 0 mm 3 mps 737 mmHg 66%
22:00 +9°C° 0 mm 3 mps 737 mmHg 65%
23:00 +8°C° 0 mm 3 mps 737 mmHg 64%

Tomorrow, 10 May, Monday

Time Temperature Precipitation Wind Pressure Humidity
00:00 +8°C° 0 mm 3 mps 737 mmHg 65%
01:00 +7°C° 0 mm 3 mps 737 mmHg 66%
02:00 +7°C° 0 mm 3 mps 737 mmHg 67%
03:00 +5°C° 0 mm 3 mps 737 mmHg 68%
04:00 +5°C° 0 mm 3 mps 736 mmHg 69%
05:00 +5°C° 0 mm 3 mps 736 mmHg 71%
06:00 +6°C° 0 mm 4 mps 737 mmHg 68%
07:00 +8°C° 0 mm 5 mps 737 mmHg 65%
08:00 +10°C° 0 mm 6 mps 737 mmHg 62%
09:00 +11°C° 0 mm 6 mps 737 mmHg 59%
10:00 +14°C° 0 mm 7 mps 737 mmHg 57%
11:00 +15°C° 0 mm 7 mps 737 mmHg 55%
12:00 +16°C° 0 mm 7 mps 736 mmHg 54%
13:00 +17°C° 0 mm 7 mps 736 mmHg 53%
14:00 +18°C° 0 mm 7 mps 736 mmHg 52%
15:00 +17°C° 0 mm 7 mps 736 mmHg 55%
16:00 +17°C° 0 mm 7 mps 735 mmHg 58%
17:00 +17°C° 0 mm 6 mps 735 mmHg 61%
18:00 +16°C° 0 mm 6 mps 735 mmHg 65%
19:00 +14°C° 0 mm 5 mps 735 mmHg 69%
20:00 +12°C° 0 mm 4 mps 735 mmHg 73%
21:00 +12°C° 0 mm 5 mps 735 mmHg 74%
22:00 +10°C° 0 mm 5 mps 735 mmHg 75%
23:00 +9°C° 0 mm 5 mps 735 mmHg 76%

Day after tomorrow, 11 May, Tuesday

Time Temperature Precipitation Wind Pressure Humidity
00:00 +9°C° 0 mm 5 mps 735 mmHg 75%
01:00 +8°C° 0 mm 5 mps 735 mmHg 75%
02:00 +8°C° 0 mm 5 mps 735 mmHg 74%
03:00 +8°C° 0 mm 5 mps 735 mmHg 74%
04:00 +7°C° 0 mm 5 mps 735 mmHg 74%
05:00 +7°C° 0 mm 5 mps 735 mmHg 74%
06:00 +8°C° 0 mm 6 mps 735 mmHg 71%
07:00 +10°C° 0 mm 6 mps 735 mmHg 68%
08:00 +11°C° 0 mm 6 mps 735 mmHg 65%
09:00 +13°C° 0 mm 6 mps 735 mmHg 62%
10:00 +15°C° 0 mm 7 mps 734 mmHg 59%
11:00 +16°C° 0 mm 7 mps 734 mmHg 55%
12:00 +17°C° 0 mm 7 mps 734 mmHg 53%
13:00 +17°C° 0 mm 6 mps 734 mmHg 50%
14:00 +19°C° 0 mm 6 mps 734 mmHg 47%
15:00 +19°C° 0 mm 6 mps 733 mmHg 49%
16:00 +17°C° 0 mm 6 mps 733 mmHg 51%
17:00 +17°C° 0 mm 5 mps 732 mmHg 53%
18:00 +15°C° 0 mm 5 mps 732 mmHg 59%
19:00 +13°C° 0 mm 4 mps 732 mmHg 64%
20:00 +12°C° 0 mm 4 mps 732 mmHg 70%
21:00 +11°C° 0 mm 4 mps 732 mmHg 74%
22:00 +11°C° 0 mm 4 mps 732 mmHg 79%
23:00 +10°C° 0 mm 4 mps 732 mmHg 84%

12 May, Wednesday

Time Temperature Precipitation Wind Pressure Humidity
00:00 +10°C° 0 mm 4 mps 731 mmHg 87%
01:00 +8°C° 0 mm 4 mps 731 mmHg 90%
02:00 +9°C° 0 mm 3 mps 730 mmHg 93%
03:00 +8°C° 0 mm 4 mps 730 mmHg 94%
04:00 +8°C° 0 mm 4 mps 730 mmHg 96%
05:00 +8°C° 0 mm 4 mps 730 mmHg 97%
06:00 +8°C° 0 mm 5 mps 730 mmHg 93%
07:00 +9°C° 0 mm 5 mps 730 mmHg 89%
08:00 +10°C° 0 mm 6 mps 729 mmHg 85%
09:00 +11°C° 0 mm 6 mps 729 mmHg 78%
10:00 +13°C° 0 mm 6 mps 729 mmHg 70%
11:00 +14°C° 0 mm 6 mps 729 mmHg 62%
12:00 +15°C° 0 mm 5 mps 728 mmHg 57%
13:00 +15°C° 0 mm 5 mps 728 mmHg 53%
14:00 +16°C° 0 mm 5 mps 728 mmHg 49%
15:00 +15°C° 0 mm 5 mps 727 mmHg 54%
16:00 +14°C° 0 mm 6 mps 727 mmHg 59%
17:00 +13°C° 0 mm 6 mps 727 mmHg 64%
18:00 +11°C° 0 mm 6 mps 727 mmHg 68%
19:00 +10°C° 0 mm 5 mps 727 mmHg 72%
20:00 +10°C° 0 mm 4 mps 726 mmHg 76%
21:00 +8°C° 0 mm 4 mps 726 mmHg 79%
22:00 +7°C° 0 mm 4 mps 726 mmHg 82%
23:00 +6°C° 0 mm 4 mps 726 mmHg 85%

13 May, Thursday

Time Temperature Precipitation Wind Pressure Humidity
00:00 +6°C° 0 mm 4 mps 725 mmHg 85%
01:00 +6°C° 0 mm 4 mps 725 mmHg 84%
02:00 +6°C° 0 mm 4 mps 725 mmHg 84%
03:00 +6°C° 0.4 mm 4 mps 724 mmHg 86%
04:00 +6°C° 0.4 mm 4 mps 724 mmHg 87%
05:00 +6°C° 0.4 mm 4 mps 724 mmHg 89%
06:00 +6°C° 0.6 mm 4 mps 724 mmHg 90%
07:00 +6°C° 0.6 mm 4 mps 724 mmHg 91%
08:00 +7°C° 0.6 mm 4 mps 724 mmHg 93%
09:00 +7°C° 0.6 mm 4 mps 724 mmHg 94%
10:00 +7°C° 0.6 mm 4 mps 723 mmHg 95%
11:00 +7°C° 0.6 mm 4 mps 723 mmHg 96%
12:00 +9°C° 0.6 mm 3 mps 723 mmHg 96%
13:00 +9°C° 0.6 mm 3 mps 723 mmHg 96%
14:00 +10°C° 0.6 mm 3 mps 723 mmHg 96%
15:00 +10°C° 0.1 mm 3 mps 723 mmHg 95%
16:00 +10°C° 0.1 mm 3 mps 723 mmHg 94%
17:00 +10°C° 0.1 mm 3 mps 724 mmHg 94%
18:00 +10°C° 0 mm 3 mps 724 mmHg 95%
19:00 +9°C° 0 mm 3 mps 724 mmHg 96%
20:00 +9°C° 0 mm 3 mps 724 mmHg 97%
21:00 +9°C° 0 mm 3 mps 724 mmHg 97%
22:00 +9°C° 0 mm 3 mps 724 mmHg 97%
23:00 +9°C° 0 mm 3 mps 724 mmHg 97%

14 May, Friday

Time Temperature Precipitation Wind Pressure Humidity
00:00 +9°C° 0 mm 3 mps 724 mmHg 96%
01:00 +9°C° 0 mm 2 mps 724 mmHg 96%
02:00 +9°C° 0 mm 2 mps 724 mmHg 96%
03:00 +8°C° 0 mm 2 mps 724 mmHg 94%
04:00 +8°C° 0 mm 2 mps 725 mmHg 93%
05:00 +8°C° 0 mm 2 mps 725 mmHg 92%
06:00 +9°C° 0 mm 2 mps 725 mmHg 90%
07:00 +10°C° 0 mm 2 mps 725 mmHg 88%
08:00 +12°C° 0 mm 2 mps 725 mmHg 86%
09:00 +14°C° 0.1 mm 2 mps 725 mmHg 80%
10:00 +16°C° 0.1 mm 2 mps 725 mmHg 73%
11:00 +17°C° 0.1 mm 2 mps 726 mmHg 67%
12:00 +18°C° 0.5 mm 2 mps 726 mmHg 67%
13:00 +18°C° 0.5 mm 2 mps 726 mmHg 67%
14:00 +18°C° 0.5 mm 3 mps 726 mmHg 66%
15:00 +17°C° 0.9 mm 2 mps 726 mmHg 73%
16:00 +16°C° 0.9 mm 2 mps 726 mmHg 79%
17:00 +15°C° 0.9 mm 1 mps 726 mmHg 85%
18:00 +14°C° 0.3 mm 1 mps 726 mmHg 86%
19:00 +13°C° 0.3 mm 1 mps 726 mmHg 86%
20:00 +12°C° 0.3 mm 0 mps 726 mmHg 87%
21:00 +12°C° 0 mm 1 mps 726 mmHg 88%
22:00 +12°C° 0 mm 1 mps 727 mmHg 88%
23:00 +11°C° 0 mm 1 mps 727 mmHg 89%
Show more